Location: Barcelona
(41.3830°N, 2.1830°E)
Time: 00:50:06
(UTC+01:00)

ISS - Pass Details

Date: 22 February 2020
Orbit: 415 x 422 km, 51.6° (Epoch: 27 February)

Event Time Altitude Azimuth Distance (km) Brightness Sun altitude
Exits shadow 06:39:43 - 219° (SW) 1,841 -0.8 -11.5°
Reaches altitude 10° 06:40:35 10° 216° (SW) 1,493 -1.3 -11.4°
Maximum altitude 06:43:51 51° 140° (SE) 534 -2.9 -10.8°
Drops below altitude 10° 06:47:09 10° 63° (ENE) 1,506 0.0 -10.1°
Sets 06:49:17 0° 58° (ENE) 2,374 1.0 -9.7°
